EDT,Max TemperatureF,Mean TemperatureF,Min TemperatureF,Max Dew PointF,MeanDew PointF,Min DewpointF,Max Humidity, Mean Humidity, Min Humidity, Max Sea Level PressureIn, Mean Sea Level PressureIn, Min Sea Level PressureIn, Max VisibilityMiles, Mean VisibilityMiles, Min VisibilityMiles, Max Wind SpeedMPH, Mean Wind SpeedMPH, Max Gust SpeedMPH,PrecipitationIn, CloudCover, Events, WindDirDegrees
2013-5-1,75,73,70,68,66,64,84,79,73,30.00,29.97,29.93,10,10,2,20,12,29,0.18,7,Rain,90
2013-5-2,81,74,66,68,64,61,87,75,62,30.00,29.94,29.89,10,9,2,18,10,26,0.26,7,Rain-Thunderstorm,70
2013-5-3,73,70,66,66,64,59,93,82,70,29.89,29.82,29.78,10,6,2,22,11,31,0.38,8,Rain,55
2013-5-4,74,64,53,64,59,46,90,79,68,29.89,29.81,29.76,10,9,2,18,12,29,0.04,6,Rain,73
2013-5-5,76,62,47,61,50,42,83,65,47,29.94,29.89,29.85,10,10,2,,,,0.06,2,Rain,-1
2013-5-6,71,60,49,52,45,41,80,62,44,30.04,29.99,29.95,10,10,10,,,,0.00,2,,-1
2013-5-7,76,68,60,59,56,52,90,68,46,30.04,29.99,29.94,10,10,4,7,11,8,0.05,4,Rain,270
2013-5-8,79,69,58,64,60,55,93,74,54,30.13,30.08,30.02,10,9,1,17,6,21,0.00,2,,258
2013-5-9,81,70,59,67,60,57,90,69,48,30.16,30.12,30.08,10,8,0,15,4,28,0.00,1,Fog,209
2013-5-10,78,70,61,67,62,57,90,72,54,30.14,30.07,29.97,10,10,9,13,5,16,0.00,0,,176
2013-5-11,78,72,66,72,68,63,93,83,73,30.10,30.03,29.98,10,7,2,16,5,22,0.41,5,Rain-Thunderstorm,246
2013-5-12,81,72,63,68,64,61,93,74,54,30.07,30.01,29.97,10,8,0,7,4,8,0.00,4,Fog,332
2013-5-13,79,68,56,59,45,38,78,52,25,30.22,30.15,30.06,10,10,10,18,9,24,0.00,0,,5
2013-5-14,77,65,52,52,48,43,83,57,31,30.29,30.23,30.19,10,10,10,13,6,16,0.00,0,,130
2013-5-15,60,58,55,52,51,51,87,80,71,30.21,30.19,30.18,10,10,10,4,0,,0.00,0,,40
2013-5-16,,,,,,,,,,,,,,,,,,,,,,
2013-5-17,,,,,,,,,,,,,,,,,,,,,,
2013-5-18,,,,,,,,,,,,,,,,,,,,,,
2013-5-19,,,,,,,,,,,,,,,,,,,,,,
2013-5-20,,,,,,,,,,,,,,,,,,,,,,
2013-5-21,,,,,,,,,,,,,,,,,,,,,,
2013-5-22,85,80,74,71,70,69,82,72,61,29.98,29.94,29.91,10,10,10,15,8,18,0.00,0,,222
2013-5-23,92,80,68,72,69,64,93,69,44,30.03,29.99,29.94,10,10,10,21,7,25,0.00,1,,293
2013-5-24,91,82,72,72,66,54,94,67,31,30.13,30.05,29.99,10,10,10,10,6,18,0.00,1,,332
2013-5-25,84,73,61,66,57,51,81,62,43,30.23,30.17,30.12,10,10,10,15,7,20,0.00,0,,79
2013-5-26,83,74,64,66,64,60,87,69,51,30.24,30.18,30.15,10,8,2,14,7,18,0.00,0,,149
2013-5-27,85,75,64,67,63,60,87,66,44,30.20,30.15,30.09,10,10,10,15,5,21,0.00,1,,122
2013-5-28,84,77,70,69,66,63,84,70,55,30.14,30.11,30.06,10,10,10,16,8,22,0.00,2,,119
2013-5-29,86,82,77,72,70,67,79,70,61,30.13,30.08,30.04,10,10,10,20,11,25,0.00,4,,121
2013-5-30,87,82,77,72,71,69,79,68,57,30.12,30.07,30.03,10,10,10,20,13,26,0.00,4,,119
2013-5-31,86,82,78,71,69,68,74,67,59,30.12,30.07,30.02,10,10,10,20,11,29,0.00,5,,123